Погода в Абергавенни

Великобритания     51°49′23″N   3°01′02″W
темп.,
°C
ветер,
м/с
пор.,
м/с
влажн.,
%
обл.,
%
осадки,
мм/ч
давл.,
гПа
погр.,
м
14 апреля, ср
ср1401:00+3с22895 0.2 103312
04:00+2с22925 0.0 103323
07:00+1с33935 0.0 103439
10:00+7св23795 0.0 1034497
13:00+9св447096 0.4 10331135
16:00+9св446794 0.5 10331206
19:00+8в357568 0.6 1032213
22:00+2св11875 0.0 103410
15 апреля, чт
чт1501:00+1ссв118852 0.0 103510
04:00+1ссв219049 0.0 103410
07:00+1ссв229239 0.0 103545
10:00+5св35715 0.0 1035670
13:00+8всв45524 0.0 10341289
16:00+9св345392 0.0 10321720
19:00+7всв247443 0.1 1032115
22:00+2ссв22878 0.0 103313
16 апреля, пт
пт1601:00+1с22915 0.0 103323
04:00−1с22935 0.0 103323
07:00−1ссв23945 0.0 103343
10:00+5св34642 0.0 1033631
13:00+8всв33514 0.0 10321262
16:00+9всв335210 0.0 10301581
19:00+7ссв237024 0.0 103079
22:00+3ссв22738 0.0 103113
17 апреля, сб
сб1701:00+1св11825 0.0 103110
04:000с22854 0.0 103011
07:000ссв118312 0.0 103012
10:00+6вюв2169100 0.0 1030449
13:00+9ююв326014 0.0 10281178
16:00+10ю335891 0.0 10271206
19:00+8ю2375100 0.0 1027107
22:00+4з1184100 0.0 102710
18 апреля, вс
вс1801:00+4юз118687 0.0 102710
04:00+3ююз1191100 0.0 102610
07:00+4ююз2290100 0.0 102631
10:00+7ююз356792 0.0 1026509
13:00+10ююз565666 0.0 1025926
16:00+11ююз555849 0.0 10241071
19:00+9ю4677100 0.0 1023306
22:00+5ю2292100 0.0 102431